Regional Weather Roundup
Issued by NWS Bismarck, ND

Home | Current Version | Previous Version | Text Only | Print | Product List | Glossary On
Versions: 1 2 3 4 5 6 7 8 9 10 11 12 13 14 15 16 17 18 19 20 21 22 23 24 25 26 27 28 29 30 31 32 33 34 35 36 37 38 39 40 41 42 43 44 45 46 47 48 49 50
000
ASUS43 KBIS 040802
RWRBIS

NWR BROADCAST TEXT
NATIONAL WEATHER SERVICE BISMARCK ND
300 AM CDT WED MAY 04 2016

NOTE: "FAIR" INDICATES FEW OR NO CLOUDS BELOW 12,000 FEET WITH NO
SIGNIFICANT WEATHER AND/OR OBSTRUCTIONS TO VISIBILITY.


CITY           SKY/WX    TMP DP  RH WIND       PRES   REMARKS
WILLISTON      CLEAR     48  40  73 CALM      30.07R
MINOT          CLEAR     47  28  47 SE3       30.08R
MINOT AFB      CLEAR     43  31  62 SE6       30.07S
BISMARCK       CLEAR     40  31  70 NE3       30.10S
DICKINSON      CLEAR     44  35  70 S8        30.09R
GARRISON         N/A     42  31  64 CALM      30.09R
HETTINGER ARPT CLEAR     39  34  82 W3        30.12R
JAMESTOWN      CLEAR     36  30  79 NW6       30.06R
CARRINGTON     FAIR      39  28  65 NW6       30.10R
HAZEN          FAIR      36  32  87 CALM      30.11S
OAKES            N/A    N/A N/A N/A MISG        N/A
STANLEY        FAIR      46  32  57 CALM      30.10S
$$

CITY           SKY/WX    TMP DP  RH WIND       PRES   REMARKS
GRAND FORKS    CLEAR     37  31  78 NW8       30.04R
GRAND FORKS AF CLEAR     39  32  75 N7        30.04S
DEVILS LAKE    CLEAR     36  31  82 NW3       30.08R
FARGO          CLEAR     42  29  59 N7        30.02R
CAVALIER       FAIR      41  32  70 N7        30.07R
GRAFTON        FAIR      41  34  75 NW7       30.07R
GWINNER        FAIR      45  32  61 N9        30.03S
LANGDON        FAIR      34  27  75 N5        30.07R
$$

CITY           SKY/WX    TMP DP  RH WIND       PRES   REMARKS
ABERDEEN       CLEAR     41  31  67 N9        30.05R
MOBRIDGE       CLEAR     42  32  67 N5        30.07R
BUFFALO          N/A     57  37  47 W5        30.06S
RAPID CITY     CLEAR     47  37  68 NW9       30.12S
GLASGOW        CLEAR     52  39  61 SE10      30.04R
SIDNEY         CLEAR     46  39  76 CALM      30.07S
WOLF POINT     CLEAR     49  41  74 CALM      30.04S
GLENDIVE       CLEAR     54  37  54 S6        30.10S
MILES CITY     PTCLDY    56  40  55 SE8       30.07S
BAKER          CLEAR     50  38  63 S6        30.11S
$$

CITY           SKY/WX    TMP DP  RH WIND       PRES   REMARKS
BILLINGS       CLEAR     62  36  37 S7        30.09S
GREAT FALLS    CLEAR     50  38  63 VRB3      30.03R
$$





USA.gov is the U.S. government's official web portal to all federal, state and local government web resources and services.